NKS1403 KATL-KLGA

Flight info

Callsign NKS1403
Flight time N/A
Altitude 39000
Route JACCC2 KELLN BYJAC Q60 HURTS PROUD2
Aircraft A20N/M-SDE2E3FGHIRWXY/LB1

Departure

Time N/A
Airport Hartsfield Jackson Atlanta International Airport (KATL)

Arrival

Time 2026-05-03 20:20
Airport LaGuardia Airport (KLGA)
Time Latitude Longitude Altitude Speed Heading
2026-05-03 20:15 40.64308 -73.98802 2991 ft 193 kts 24°
2026-05-03 20:15 40.65401 -73.97893 2991 ft 179 kts 24°
2026-05-03 20:15 40.66421 -73.97043 2975 ft 168 kts 24°
2026-05-03 20:15 40.67408 -73.96205 2752 ft 170 kts 24°
2026-05-03 20:16 40.68400 -73.95351 2556 ft 171 kts 25°
2026-05-03 20:16 40.69377 -73.94499 2495 ft 164 kts 27°
2026-05-03 20:16 40.70249 -73.93438 2473 ft 176 kts 39°
2026-05-03 20:16 40.71064 -73.92252 2356 ft 173 kts 39°
2026-05-03 20:17 40.71827 -73.91022 2156 ft 178 kts 54°
2026-05-03 20:17 40.72198 -73.89413 2025 ft 187 kts 71°
2026-05-03 20:17 40.72446 -73.87830 2008 ft 168 kts 71°
2026-05-03 20:17 40.72676 -73.86389 1839 ft 152 kts 69°
2026-05-03 20:18 40.72910 -73.85046 1514 ft 148 kts 63°
2026-05-03 20:18 40.73443 -73.84048 1233 ft 124 kts 24°
2026-05-03 20:18 40.74159 -73.83501 933 ft 116 kts 13°
2026-05-03 20:18 40.74891 -73.83312 664 ft 104 kts 347°
2026-05-03 20:19 40.75605 -73.83542 518 ft 108 kts 338°
2026-05-03 20:19 40.76260 -73.83938 377 ft 103 kts 317°
2026-05-03 20:19 40.76650 -73.84573 233 ft 103 kts 301°
2026-05-03 20:19 40.76857 -73.85007 148 ft 97 kts 304°
2026-05-03 20:20 40.77230 -73.85762 47 ft 101 kts 302°
2026-05-03 20:20 40.77573 -73.86474 25 ft 80 kts 303°
2026-05-03 20:20 40.77832 -73.87019 15 ft 48 kts 302°
2026-05-03 20:20 40.77916 -73.87218 14 ft 9 kts 272°
2026-05-03 20:21 40.77905 -73.87311 15 ft 0 kts 227°
2026-05-03 20:21 40.77893 -73.87336 14 ft 2 kts 242°
2026-05-03 20:21 40.77883 -73.87363 14 ft 7 kts 237°
2026-05-03 20:22 40.77842 -73.87400 13 ft 1 kts 207°
2026-05-03 20:22 40.77819 -73.87404 14 ft 6 kts 171°
2026-05-03 20:22 40.77770 -73.87400 15 ft 4 kts 212°
2026-05-03 20:22 40.77754 -73.87439 16 ft 6 kts 242°
2026-05-03 20:23 40.77711 -73.87447 18 ft 8 kts 161°
2026-05-03 20:23 40.77648 -73.87457 19 ft 9 kts 193°
2026-05-03 20:23 40.77633 -73.87448 19 ft 0 kts 132°
2026-05-03 20:24 40.77628 -73.87438 19 ft 4 kts 130°
2026-05-03 20:24 40.77617 -73.87421 19 ft 4 kts 132°
2026-05-03 20:24 40.77612 -73.87415 19 ft 0 kts 134°